Bemidji, MN

7:17 AM CST on February 23, 2018 (GMT -0600)
Bemidji-Beltrami County

Weather History for KBJI - February, 2014

Change the Weather History Date:

Saturday, February 22, 2014

  Actual Average Record
Temperature  
Mean Temperature 2 °F -  
Max Temperature 6 °F 29 °F 60 °F (1961)
Min Temperature -2 °F 6 °F -31 °F (1966)
Degree Days  
Heating Degree Days 63    
Moisture  
Dew Point -4 °F    
Average Humidity 76    
Maximum Humidity 83    
Minimum Humidity 68    
Precipitation  
Precipitation 0.00 in - - ()
Sea Level Pressure  
Sea Level Pressure 29.84 in    
Wind  
Wind Speed 16 mph (West)    
Max Wind Speed 24 mph    
Max Gust Speed 30 mph    
Visibility 8 miles    
Events      
Averages and records for this station are not official NWS values.
T = Trace of Precipitation, MM = Missing Value Source: NWS Daily Summary

Daily Weather History Graph

Daily Weather History Graph

Search for Another Location

Airport or City:

Trip Planner

Search our weather history database for the weather conditions in past years. The results will help you decide how hot, cold, wet, or windy it might be!

Date:

Astronomy

Feb. 22, 2014 Rise Set
Actual Time 7:12 AM CST 5:54 PM CST
Civil Twilight 6:41 AM CST 6:25 PM CST
Nautical Twilight 6:06 AM CST 7:01 PM CST
Astronomical Twilight 5:30 AM CST 7:36 PM CST
Moon 1:19 AM CST (2/22) 10:54 AM CST (2/22)
Length of Visible Light 11h 43m
Length of Day
10h 41m
Waning Gibbous, 50% of the Moon is Illuminated
Feb 22
Waning Gibbous
Mar 1
New
Mar 8
First Quarter
Mar 16
Full
Mar 23
Last Quarter

Hourly Weather History & Observations

Time (CST) Temp. Windchill Dew Point Humidity Pressure Visibility Wind Dir Wind Speed Gust Speed Precip Events Conditions
12:09 AM 2.7 °F -16.0 °F -2.2 °F 80% 29.65 in 5.0 mi West 15.0 mph 23.0 mph N/A   Overcast
12:29 AM 2.7 °F -16.6 °F -2.2 °F 80% 29.65 in 7.0 mi West 16.1 mph 21.9 mph N/A   Overcast
12:50 AM 2.3 °F -15.7 °F -2.6 °F 80% 29.65 in 10.0 mi West 13.8 mph 20.7 mph N/A   Overcast
1:09 AM 1.8 °F -16.4 °F -3.1 °F 80% 29.66 in 10.0 mi West 13.8 mph - N/A   Overcast
1:29 AM 0.9 °F -18.3 °F -3.6 °F 81% 29.66 in 10.0 mi West 15.0 mph - N/A   Overcast
1:49 AM 1.0 °F -17.3 °F -3.5 °F 81% 29.67 in 10.0 mi West 13.8 mph 21.9 mph N/A   Overcast
2:09 AM 0.9 °F -17.6 °F -3.6 °F 81% 29.68 in 10.0 mi West 13.8 mph 19.6 mph N/A   Overcast
2:29 AM 0.5 °F -18.0 °F -4.0 °F 81% 29.68 in 10.0 mi West 13.8 mph - N/A   Overcast
2:49 AM -0.4 °F -19.9 °F -4.9 °F 81% 29.68 in 10.0 mi West 15.0 mph - N/A   Scattered Clouds
3:10 AM -0.6 °F -20.1 °F -4.9 °F 82% 29.69 in 10.0 mi West 15.0 mph - N/A   Mostly Cloudy
3:29 AM -0.4 °F -20.5 °F -4.9 °F 81% 29.70 in 10.0 mi West 16.1 mph 23.0 mph N/A   Overcast
3:49 AM -0.4 °F -19.9 °F -4.9 °F 81% 29.70 in 10.0 mi West 15.0 mph 20.7 mph N/A   Overcast
4:10 AM -0.4 °F -20.5 °F -4.9 °F 81% 29.71 in 10.0 mi West 16.1 mph 19.6 mph N/A   Overcast
4:29 AM -0.9 °F -21.2 °F -5.3 °F 82% 29.72 in 7.0 mi West 16.1 mph 25.3 mph N/A   Overcast
4:49 AM -1.3 °F -21.0 °F -5.8 °F 81% 29.73 in 10.0 mi West 15.0 mph - N/A   Overcast
5:09 AM -1.3 °F -21.0 °F -5.8 °F 81% 29.74 in 10.0 mi West 15.0 mph 20.7 mph N/A   Overcast
5:29 AM -0.9 °F -21.9 °F -5.3 °F 82% 29.75 in 7.0 mi West 17.3 mph 24.2 mph N/A   Overcast
5:49 AM -0.9 °F -21.2 °F -5.3 °F 82% 29.76 in 7.0 mi West 16.1 mph - N/A   Overcast
6:10 AM -1.3 °F -19.6 °F -5.8 °F 81% 29.76 in 10.0 mi West 12.7 mph - N/A   Overcast
6:29 AM -1.7 °F -20.8 °F -6.2 °F 81% 29.77 in 10.0 mi West 13.8 mph - N/A   Overcast
6:49 AM -2.2 °F -20.7 °F -6.7 °F 81% 29.78 in 10.0 mi West 12.7 mph - N/A   Overcast
7:10 AM -2.2 °F -21.5 °F -6.3 °F 83% 29.78 in 7.0 mi West 13.8 mph - N/A   Overcast
7:29 AM -1.7 °F -20.8 °F -6.0 °F 82% 29.79 in 4.0 mi West 13.8 mph 20.7 mph N/A   Overcast
7:49 AM -1.3 °F -20.3 °F -6.0 °F 81% 29.80 in 4.0 mi West 13.8 mph 18.4 mph N/A   Haze
8:10 AM -1.5 °F -21.3 °F -6.3 °F 80% 29.80 in 4.0 mi West 15.0 mph - N/A   Haze
8:29 AM -1.3 °F -21.7 °F -6.3 °F 79% 29.80 in 5.0 mi West 16.1 mph - N/A   Haze
8:49 AM -0.8 °F -19.6 °F -6.2 °F 78% 29.80 in 4.0 mi West 13.8 mph - N/A   Haze
9:09 AM -0.0 °F -18.7 °F -6.0 °F 76% 29.80 in 5.0 mi West 13.8 mph - N/A   Haze
9:29 AM 0.5 °F -19.4 °F -5.4 °F 76% 29.81 in 4.0 mi West 16.1 mph 21.9 mph N/A   Haze
9:49 AM 1.4 °F -16.9 °F -5.1 °F 74% 29.81 in 7.0 mi West 13.8 mph 24.2 mph N/A   Overcast
10:10 AM 1.9 °F -18.1 °F -4.7 °F 74% 29.82 in 3.0 mi West 17.3 mph 26.5 mph N/A   Haze
10:29 AM 3.0 °F -16.1 °F -4.4 °F 71% 29.83 in 7.0 mi West 16.1 mph 24.2 mph N/A   Scattered Clouds
10:49 AM 3.2 °F -17.6 °F -4.2 °F 71% 29.83 in 5.0 mi West 19.6 mph - N/A   Haze
11:10 AM 3.9 °F -15.6 °F -4.0 °F 70% 29.83 in 7.0 mi West 17.3 mph - N/A   Scattered Clouds
11:29 AM 4.3 °F -17.2 °F -3.5 °F 70% 29.83 in 5.0 mi West 21.9 mph - N/A   Haze
11:49 AM 5.0 °F -14.7 °F -3.3 °F 69% 29.84 in 5.0 mi West 18.4 mph 25.3 mph N/A   Haze
12:10 PM 4.8 °F -15.5 °F -3.1 °F 70% 29.84 in 5.0 mi WNW 19.6 mph 28.8 mph N/A   Haze
12:29 PM 5.5 °F -15.0 °F -2.6 °F 69% 29.85 in 5.0 mi West 20.7 mph 24.2 mph N/A   Haze
12:49 PM 5.9 °F -14.5 °F -2.6 °F 68% 29.85 in 10.0 mi West 20.7 mph 24.2 mph N/A   Scattered Clouds
1:10 PM 5.9 °F -13.5 °F -2.4 °F 69% 29.85 in 7.0 mi West 18.4 mph 25.3 mph N/A   Scattered Clouds
1:29 PM 6.1 °F -15.7 °F -2.2 °F 69% 29.86 in 5.0 mi West 24.2 mph - N/A   Haze
1:49 PM 6.8 °F -12.9 °F -1.5 °F 69% 29.86 in 7.0 mi West 19.6 mph - N/A   Scattered Clouds
2:10 PM 6.4 °F -13.8 °F -2.0 °F 68% 29.86 in 7.0 mi WNW 20.7 mph 26.5 mph N/A   Scattered Clouds
2:29 PM 6.4 °F -13.8 °F -2.2 °F 68% 29.87 in 7.0 mi West 20.7 mph 26.5 mph N/A   Scattered Clouds
2:49 PM 5.0 °F -16.7 °F -2.7 °F 70% 29.87 in 4.0 mi West 23.0 mph 27.6 mph N/A   Haze
3:10 PM 4.8 °F -16.9 °F -2.6 °F 72% 29.88 in 2.5 mi West 23.0 mph 29.9 mph N/A   Haze
3:29 PM 5.7 °F -15.3 °F -2.4 °F 69% 29.88 in 5.0 mi West 21.9 mph - N/A   Haze
3:49 PM 5.5 °F -14.0 °F -2.2 °F 70% 29.89 in 7.0 mi West 18.4 mph 25.3 mph N/A   Mostly Cloudy
4:09 PM 5.4 °F -13.1 °F -2.0 °F 72% 29.89 in 5.0 mi West 16.1 mph 24.2 mph N/A   Haze
4:29 PM 4.6 °F -14.6 °F -2.6 °F 72% 29.90 in 5.0 mi West 17.3 mph 25.3 mph N/A   Haze
4:50 PM 5.0 °F -13.0 °F -2.4 °F 72% 29.90 in 10.0 mi West 15.0 mph 23.0 mph N/A   Mostly Cloudy
5:09 PM 4.1 °F -14.7 °F -2.6 °F 74% 29.91 in 10.0 mi West 16.1 mph 20.7 mph N/A   Mostly Cloudy
5:29 PM 3.7 °F -13.9 °F -3.1 °F 73% 29.92 in 7.0 mi West 13.8 mph 27.6 mph N/A   Mostly Cloudy
5:49 PM 3.6 °F -16.0 °F -3.1 °F 74% 29.93 in 10.0 mi West 17.3 mph - N/A   Overcast
6:09 PM 3.6 °F -14.8 °F -2.7 °F 75% 29.93 in 10.0 mi West 15.0 mph - N/A   Overcast
6:29 PM 2.8 °F -16.4 °F -3.3 °F 76% 29.94 in 10.0 mi West 16.1 mph 20.7 mph N/A   Overcast
6:50 PM 2.3 °F -16.4 °F -3.5 °F 77% 29.94 in 10.0 mi West 15.0 mph - N/A   Mostly Cloudy
7:09 PM 2.5 °F -16.2 °F -3.1 °F 78% 29.95 in 10.0 mi West 15.0 mph - N/A   Overcast
7:29 PM 3.0 °F -14.8 °F -2.7 °F 77% 29.95 in 10.0 mi West 13.8 mph 20.7 mph N/A   Overcast
7:50 PM 3.2 °F -15.9 °F -2.4 °F 78% 29.96 in 7.0 mi West 16.1 mph - N/A   Overcast
8:09 PM 3.2 °F -15.3 °F -2.6 °F 77% 29.96 in 5.0 mi West 15.0 mph 24.2 mph N/A   Haze
8:29 PM 3.4 °F -16.3 °F -2.6 °F 76% 29.96 in 7.0 mi WNW 17.3 mph 25.3 mph N/A   Overcast
8:49 PM 3.7 °F -15.2 °F -2.6 °F 75% 29.97 in 10.0 mi WNW 16.1 mph 23.0 mph N/A   Overcast
9:09 PM 3.7 °F -14.6 °F -2.7 °F 74% 29.97 in 10.0 mi WNW 15.0 mph 20.7 mph N/A   Overcast
9:29 PM 3.2 °F -15.9 °F -3.5 °F 74% 29.98 in 10.0 mi West 16.1 mph 20.7 mph N/A   Scattered Clouds
9:49 PM 2.7 °F -16.0 °F -4.0 °F 74% 29.99 in 10.0 mi West 15.0 mph - N/A   Clear
10:09 PM 2.3 °F -17.1 °F -4.2 °F 74% 29.99 in 10.0 mi West 16.1 mph 21.9 mph N/A   Clear
10:29 PM 2.3 °F -16.4 °F -4.2 °F 74% 29.99 in 10.0 mi West 15.0 mph 19.6 mph N/A   Clear
10:50 PM 2.1 °F -16.6 °F -4.4 °F 74% 29.99 in 10.0 mi West 15.0 mph 21.9 mph N/A   Clear
11:10 PM 1.8 °F -15.7 °F -4.5 °F 75% 29.99 in 10.0 mi West 12.7 mph 21.9 mph N/A   Clear
11:29 PM 1.2 °F -17.1 °F -4.9 °F 75% 29.99 in 10.0 mi West 13.8 mph - N/A   Clear
11:49 PM 1.2 °F -17.8 °F -4.7 °F 76% 30.00 in 10.0 mi West 15.0 mph 20.7 mph N/A   Clear